Regional Weather Roundup
Issued by NWS

Home | Current Version | Previous Version | Graphics & Text | Print | Product List | Glossary On
Versions: 1 2 3 4 5 6 7 8 9 10 11 12 13 14 15 16 17 18 19 20 21 22 23 24 25 26 27 28
000
ASUS45 KSLC 151510
RWRUT

UTAH REGIONAL WEATHER ROUNDUP
NATIONAL WEATHER SERVICE SALT LAKE CITY UT
800 AM MST SUN JAN 15 2017

UTZ001>011-023>025-151600-

NORTHERN UTAH

CITY           SKY/WX    TMP DP  RH WIND       PRES   REMARKS
BRIGHAM CITY     N/A     11   7  86 CALM      30.18S VSB<1/4
HILL AFB       PTCLDY    20  13  75 E20G26    30.14S WCI   5
LOGAN          LGT SNOW  11   8  88 CALM      30.21S VSB 1
OGDEN          PTCLDY    20  15  81 CALM      30.15S
SALT LAKE CITY CLOUDY    27  24  89 N5        30.16S FOG     WCI  22
TOOELE VALLEY  CLOUDY    30  28  93 SE3       30.16S FOG
WENDOVER       CLEAR     19  18  93 E7        30.17R WCI  10
HEBER CITY     CLOUDY    12  10  92 CALM      30.14F
WEST JORDAN    CLOUDY    26  26 100 CALM      30.15S

$$

UTZ011>015-024>027-151600-

CENTRAL/NORTHEAST UTAH

CITY           SKY/WX    TMP DP  RH WIND       PRES   REMARKS
PROVO AIRPORT  CLOUDY    28  21  75 N9        30.15S WCI  19
MOAB/CANYONLAN CLOUDY    35  34  96 W8        30.00S WCI  29
DELTA          CLOUDY    28  27  93 NW6       30.14S WCI  22
PRICE          LGT SNOW  32  30  92 N7        30.00S VSB 3/4 WCI  26
RICHFIELD      CLOUDY    30  30 100 N3        30.12S FOG
ROOSEVELT      CLOUDY    27  19  74 W3        30.14F
VERNAL         CLOUDY    19  17  92 NW6       30.11S WCI  11

$$

UTZ013>016-019>022-027-151600-

SOUTHERN UTAH

CITY           SKY/WX    TMP DP  RH WIND       PRES   REMARKS
BRYCE CANYON   FOG       22  20  92 N5        30.00S VSB 1/4 WCI  16
CEDAR CITY     CLOUDY    28  26  92 N9        30.07R WCI  19
MILFORD        CLOUDY    29  26  89 N14       30.11R WCI  18
ST GEORGE      PTSUNNY   39  28  65 S8        30.07R WCI  34
HANKSVILLE     CLOUDY    36  34  93 MISG      30.04F
KANAB            N/A     37  36  93 NE5       30.05R WCI  34
BLANDING       CLOUDY    39  37  91 CALM      30.00S

$$

REGIONAL REPORTS     COLORADO/ARIZONA

CITY           SKY/WX    TMP DP  RH WIND       PRES   REMARKS
CRAIG, CO      CLOUDY    23  19  85 NE7       30.09S FOG     WCI  15
GRAND JUNCTION CLOUDY    34  33  96 N3        30.00S
RIFLE, CO      CLOUDY    30  29  96 CALM      30.03F
MONTROSE, CO   FOG       32  32 100 E3        30.02S VSB 1/4
CORTEZ, CO     CLOUDY    39  37  92 CALM      29.93F
COLORADO CITY  CLOUDY    36  34  93 NW6       30.03F WCI  31
PAGE, AZ       CLOUDY    42  36  79 CALM      29.98R
GRAND CANYON   CLOUDY    33  33 100 CALM      29.98R
KINGMAN, AZ    CLOUDY    41  35  79 NE6       29.99R
FLAGSTAFF, AZ  CLOUDY    31  31 100 CALM      29.95F

$$

REGIONAL REPORTS    NEVADA/IDAHO/WYOMING

CITY           SKY/WX    TMP DP  RH WIND       PRES   REMARKS
LAS VEGAS, NV  PTCLDY    46  29  51 NE5       30.02S
ELY, NY        CLOUDY    24  21  88 N8        30.11S WCI  15
ELKO, NV       CLOUDY    25  20  81 E5        30.17S WCI  19
POCATELLO, ID  CLOUDY    -1  -3  91 CALM      30.24R FOG
BURLEY, ID     FOG        8   6  92 CALM      30.27R VSB 3/4
FORT BRIDGER,  FOG        1   0  92 CALM      30.15F VSB<1/4
EVANSTON, WY   CLOUDY     0  -5  79 CALM      30.10R HAZE
ROCK SPRINGS,  FOG        8   4  83 W5        30.12F VSB<1/4 WCI   0
KEMMERER, WY     N/A    N/A N/A N/A N10       30.11S

$$




USA.gov is the U.S. government's official web portal to all federal, state and local government web resources and services.